This is the latest recevied weather packets stored in our database for station/object VE3VGJ. If no packets are shown the sender has not sent any weather packets the latest 10 day(s).
| Time | Temp. | Humidity | Pressure | Rain* | Wind** | Luminosity | Snow |
|---|---|---|---|---|---|---|---|
| 1778258822 | 10° C | 55% | 1011.5 hPa | 0 mm | - | 915 W/m² | - |
| 1778258519 | 10° C | 58% | 1011.6 hPa | 0 mm | - | 913 W/m² | - |
| 1778258217 | 10° C | 60% | 1011.7 hPa | 0 mm | - | 897 W/m² | - |
| 1778257914 | 10° C | 55% | 1011.7 hPa | 0 mm | - | 902 W/m² | - |
| 1778257609 | 9.44° C | 57% | 1011.6 hPa | 0 mm | - | 891 W/m² | - |
| 1778257307 | 10° C | 57% | 1011.9 hPa | 0 mm | - | 891 W/m² | - |
| 1778257004 | 10° C | 60% | 1011.6 hPa | 0 mm | - | 890 W/m² | - |
| 1778256701 | 9.44° C | 58% | 1011.7 hPa | 0 mm | - | 878 W/m² | - |
| 1778256399 | 9.44° C | 53% | 1011.9 hPa | 0 mm | - | 884 W/m² | - |
| 1778256097 | 9.44° C | 56% | 1011.8 hPa | 0 mm | - | 890 W/m² | - |
| 1778255793 | 8.89° C | 60% | 1012.1 hPa | 0 mm | - | 877 W/m² | - |
| 1778255490 | 9.44° C | 58% | 1012.1 hPa | 0 mm | - | 866 W/m² | - |
| 1778255187 | 8.89° C | 60% | 1012.1 hPa | 0 mm | - | 856 W/m² | - |
| 1778254884 | 8.89° C | 60% | 1012 hPa | 0 mm | - | 851 W/m² | - |
| 1778254581 | 8.89° C | 60% | 1012 hPa | 0 mm | - | 842 W/m² | - |
| 1778254277 | 8.33° C | 63% | 1012.1 hPa | 0 mm | - | 833 W/m² | - |
| 1778253975 | 8.33° C | 61% | 1011.9 hPa | 0 mm | - | 819 W/m² | - |
| 1778253670 | 8.89° C | 60% | 1011.8 hPa | 0 mm | - | 815 W/m² | - |
| 1778253367 | 8.89° C | 59% | 1011.7 hPa | 0 mm | - | 801 W/m² | - |
| 1778253064 | 8.89° C | 59% | 1011.8 hPa | 0 mm | - | 791 W/m² | - |
| 1778252761 | 8.89° C | 59% | 1011.7 hPa | 0 mm | - | 778 W/m² | - |
| 1778252457 | 8.89° C | 60% | 1012 hPa | 0 mm | - | 770 W/m² | - |
| 1778252154 | 8.33° C | 60% | 1011.9 hPa | 0 mm | - | 762 W/m² | - |
| 1778251850 | 8.33° C | 59% | 1011.8 hPa | 0 mm | - | 752 W/m² | - |
| 1778251548 | 8.33° C | 59% | 1011.8 hPa | 0 mm | - | 738 W/m² | - |
* Rain latest hour (hover to see other rain measurements)
** Current wind speed in m/s (hover to see current wind gust speed)